Location: Pian di Sc�
(43.6333°N, 11.5500°E)
Time: 14:29:15
(UTC+00:00)

Cosmos 44 Rocket - Pass Details

Date: 07 August 2020
Orbit: 647 x 743 km, 65.1° (Epoch: 24 September)

Event Time Altitude Azimuth Distance (km) Brightness Sun altitude
Rises 00:49:34 0° 322° (NW) 3,100 7.0 -26.6°
Reaches altitude 10° 00:51:56 10° 318° (NW) 2,193 6.1 -26.4°
Enters shadow 00:55:07 37° 297° (WNW) 1,122 4.3 -26.2°
